CW4829 Weather Reports


time (UTC)temp
C
wind
direction
speed
KPH
gust
KPH
rain 1hr
cm
rain 24hr
cm
rain mn
cm
humidity
%
barometer
mb
20260503055034 1 111 0.0 0.0 0.00 0.00 0.00 80 1014.1
20260503054540 1 111 0.0 0.0 0.00 0.00 0.00 79 1014.1
20260503054042 1 111 0.0 0.0 0.00 0.00 0.00 79 1014.1
20260503053521 1 111 0.0 0.0 0.00 0.00 0.00 79 1014.1
20260503053044 1 111 0.0 0.0 0.00 0.00 0.00 79 1014.1
20260503052532 1 111 0.0 0.0 0.00 0.00 0.00 78 1014.1
20260503052049 2 111 0.0 0.0 0.00 0.00 0.00 78 1014.1
20260503051519 2 111 0.0 0.0 0.00 0.00 0.00 78 1014.1
20260503051015 2 111 0.0 0.0 0.00 0.00 0.00 77 1014.1
20260503050536 2 111 0.0 0.0 0.00 0.00 0.00 77 1014.1
20260503050024 2 111 0.0 0.0 0.00 0.00 0.00 76 1014.1
20260503045528 2 111 0.0 0.0 0.00 0.00 0.00 76 1014.0
20260503045049 2 111 0.0 0.0 0.00 0.00 0.00 76 1014.0
20260503044518 2 111 0.0 0.0 0.00 0.00 0.00 75 1014.0
20260503044046 2 111 0.0 0.0 0.00 0.00 0.00 76 1013.9
20260503043529 2 111 0.0 0.0 0.00 0.00 0.00 76 1013.9
20260503043029 2 111 0.0 0.0 0.00 0.00 0.00 75 1013.9
20260503042514 3 111 0.0 0.0 0.00 0.00 0.00 75 1013.9
20260503042042 3 111 0.0 0.0 0.00 0.00 0.00 76 1013.9
20260503041542 3 111 0.0 0.0 0.00 0.00 0.00 76 1013.9
20260503041015 3 111 0.0 0.0 0.00 0.00 0.00 75 1014.0
20260503040517 3 111 0.0 0.0 0.00 0.00 0.00 75 1014.0
20260503040032 3 111 0.0 0.0 0.00 0.00 0.00 75 1014.0
20260503035543 3 111 0.0 0.0 0.00 0.00 0.00 75 1014.1
20260503035054 3 111 0.0 0.0 0.00 0.00 0.00 74 1014.1
20260503034550 3 111 0.0 0.0 0.00 0.00 0.00 74 1014.1
20260503033517 3 111 0.0 0.0 0.00 0.00 0.00 74 1014.2
20260503033113 3 111 0.0 0.0 0.00 0.00 0.00 74 1014.2
20260503032516 3 111 0.0 0.0 0.00 0.00 0.00 73 1014.4
20260503032041 3 111 0.0 0.0 0.00 0.00 0.00 72 1014.4
20260503031607 3 111 0.0 0.0 0.00 0.00 0.00 72 1014.4
20260503030540 3 111 0.0 0.0 0.00 0.00 0.00 72 1014.3
20260503030042 3 111 0.0 0.0 0.00 0.00 0.00 71 1014.3
20260503025607 3 111 0.0 0.0 0.00 0.00 0.00 70 1014.4
20260503025133 3 111 0.0 0.0 0.00 0.00 0.00 70 1014.4
20260503024612 3 111 0.0 0.0 0.00 0.00 0.00 71 1014.4
20260503024033 3 111 0.0 0.0 0.00 0.00 0.00 70 1014.4
20260503023550 3 111 0.0 0.0 0.00 0.00 0.00 70 1014.4
20260503022536 3 111 0.0 0.0 0.00 0.00 0.00 68 1014.4
20260503022037 3 111 0.0 0.0 0.00 0.00 0.00 67 1014.4
20260503021555 3 111 0.0 0.0 0.00 0.00 0.00 66 1014.4
20260503020524 4 111 0.0 0.0 0.00 0.00 0.00 66 1014.4
20260503020037 4 111 0.0 0.0 0.00 0.00 0.00 66 1014.4
20260503015545 5 111 0.0 0.0 0.00 0.00 0.00 65 1014.3
20260503015043 5 111 0.0 0.0 0.00 0.00 0.00 65 1014.3
20260503014546 5 111 0.0 0.0 0.00 0.00 0.00 65 1014.3
20260503013532 5 111 0.0 0.0 0.00 0.00 0.00 64 1014.1
20260503013033 5 111 0.0 0.0 0.00 0.00 0.00 64 1014.1
20260503012606 6 111 0.0 0.0 0.00 0.00 0.00 64 1014.1
20260503012105 6 111 0.0 0.0 0.00 0.00 0.00 64 1014.1
20260503011047 6 111 0.0 0.0 0.00 0.00 0.00 63 1014.0
20260503010607 6 111 0.0 0.0 0.00 0.00 0.00 62 1014.0
20260503005523 6 111 0.0 0.0 0.00 0.00 0.00 61 1013.9
20260503005034 6 111 0.0 0.0 0.00 0.00 0.00 61 1013.9
20260503004546 6 111 0.0 0.0 0.00 0.00 0.00 60 1013.9
20260503004057 6 111 0.0 0.0 0.00 0.00 0.00 60 1013.9
20260503003608 6 111 0.0 1.6 0.00 0.00 0.00 59 1013.9
20260503003129 6 111 0.0 3.2 0.00 0.00 0.00 59 1013.9
20260503002518 6 111 0.0 3.2 0.00 0.00 0.00 58 1013.8
20260503002041 6 111 1.6 3.2 0.00 0.00 0.00 59 1013.8
20260503001548 6 111 0.0 4.8 0.00 0.00 0.00 59 1013.8
20260503001052 7 111 0.0 4.8 0.00 0.00 0.00 59 1013.8
20260503000037 7 111 0.0 0.0 0.00 0.00 0.00 59 1013.8
20260502235038 7 111 0.0 0.0 0.00 0.00 0.00 59 1013.8
20260502234542 7 111 0.0 0.0 0.00 0.00 0.00 59 1013.8
20260502234045 7 111 0.0 0.0 0.00 0.00 0.00 60 1013.7
20260502233532 7 111 0.0 0.0 0.00 0.00 0.00 59 1013.7
20260502233045 7 111 0.0 0.0 0.00 0.00 0.00 59 1013.7
20260502232551 7 111 0.0 0.0 0.00 0.00 0.00 59 1013.7
20260502231527 7 111 0.0 3.2 0.00 0.00 0.00 59 1013.7
20260502231031 7 111 0.0 4.8 0.00 0.00 0.00 59 1013.7
20260502230542 7 111 1.6 6.4 0.00 0.00 0.00 58 1013.7
20260502230050 7 111 3.2 6.4 0.00 0.00 0.00 58 1013.7
20260502225606 7 111 1.6 3.2 0.00 0.00 0.00 57 1013.6
20260502225115 7 111 1.6 4.8 0.00 0.00 0.00 56 1013.6
20260502224600 7 111 1.6 4.8 0.00 0.00 0.00 55 1013.6
20260502224110 7 111 1.6 6.4 0.00 0.00 0.00 54 1013.5
20260502223527 7 148 0.0 9.7 0.00 0.00 0.00 53 1013.5
20260502223106 7 265 4.8 11.3 0.00 0.00 0.00 52 1013.5
20260502222614 7 284 4.8 16.1 0.00 0.00 0.00 52 1013.4
20260502222036 7 292 4.8 16.1 0.00 0.00 0.00 52 1013.4
20260502221019 7 320 4.8 8.0 0.00 0.00 0.00 54 1013.4
20260502220540 7 338 3.2 8.0 0.00 0.00 0.00 55 1013.4
20260502220109 8 24 1.6 6.4 0.00 0.00 0.00 56 1013.4
20260502215525 7 32 0.0 3.2 0.00 0.00 0.00 56 1013.4
20260502215048 7 32 1.6 4.8 0.00 0.00 0.00 56 1013.4
20260502214548 7 23 1.6 8.0 0.00 0.00 0.00 56 1013.4
20260502214112 7 61 3.2 11.3 0.00 0.00 0.00 55 1013.3
20260502213611 7 43 3.2 11.3 0.00 0.00 0.00 55 1013.3
20260502212514 7 338 3.2 8.0 0.00 0.00 0.00 55 1013.3
20260502212044 7 331 3.2 8.0 0.00 0.00 0.00 55 1013.3
20260502211555 7 5 3.2 8.0 0.00 0.00 0.00 55 1013.3
20260502211111 7 67 3.2 4.8 0.00 0.00 0.00 55 1013.3
20260502210520 7 67 1.6 8.0 0.00 0.00 0.00 55 1013.3
20260502210043 7 59 4.8 8.0 0.00 0.00 0.00 55 1013.3
20260502205025 7 20 3.2 19.3 0.00 0.00 0.00 55 1013.3
20260502204540 7 22 9.7 19.3 0.00 0.00 0.00 53 1013.3
20260502204100 7 312 4.8 11.3 0.00 0.00 0.00 54 1013.3
20260502203601 7 355 1.6 14.5 0.00 0.00 0.00 53 1013.3
20260502202532 8 22 9.7 16.1 0.00 0.00 0.00 52 1013.3
20260502201533 8 320 8.0 12.9 0.00 0.00 0.00 53 1013.3
20260502201053 7 321 4.8 12.9 0.00 0.00 0.00 52 1013.3
20260502200556 7 306 6.4 11.3 0.00 0.00 0.00 52 1013.3
20260502195029 7 286 4.8 12.9 0.00 0.00 0.00 54 1013.6
20260502194020 7 5 6.4 19.3 0.00 0.00 0.00 54 1013.7
20260502193024 8 350 12.9 20.9 0.00 0.00 0.00 55 1013.7
20260502192527 7 36 3.2 19.3 0.00 0.00 0.00 55 1013.7
20260502191524 7 360 4.8 12.9 0.00 0.00 0.00 55 1013.7
20260502190541 7 360 6.4 16.1 0.00 0.00 0.00 55 1013.8
20260502190113 7 335 4.8 16.1 0.00 0.00 0.00 55 1013.8
20260502185023 8 333 8.0 17.7 0.00 0.00 0.00 56 1013.8
20260502183516 8 232 8.0 17.7 0.00 0.00 0.00 55 1013.8
20260502183042 8 347 4.8 19.3 0.00 0.00 0.00 56 1013.8
20260502182601 8 321 8.0 19.3 0.00 0.00 0.00 56 1013.9
20260502182104 7 319 11.3 17.7 0.00 0.00 0.00 56 1013.9
20260502181514 7 296 8.0 16.1 0.00 0.00 0.00 57 1013.9
20260502181050 7 306 6.4 19.3 0.00 0.00 0.00 58 1013.8
20260502164032 6 296 4.8 16.1 0.00 0.03 0.00 64 1014.3
20260502163038 7 306 8.0 17.7 0.00 0.03 0.00 65 1014.3
20260502162547 7 280 8.0 16.1 0.00 0.03 0.00 64 1014.4
20260502161527 7 297 6.4 14.5 0.00 0.03 0.00 65 1014.4
20260502161056 7 315 6.4 11.3 0.00 0.03 0.00 67 1014.4
20260502151531 7 288 8.0 16.1 0.00 0.03 0.00 71 1014.4
20260502151033 6 269 4.8 14.5 0.00 0.03 0.00 73 1014.4
20260502130529 3 12 4.8 12.9 0.00 0.05 0.00 81 1013.9
20260502123551 2 269 4.8 12.9 0.00 0.05 0.00 83 1013.9
20260502123114 2 349 6.4 12.9 0.00 0.05 0.00 83 1013.9
20260502122028 2 333 6.4 12.9 0.00 0.05 0.00 84 1013.7
20260502121602 2 293 4.8 11.3 0.00 0.05 0.00 84 1013.7
20260502120532 1 333 4.8 9.7 0.00 0.05 0.00 85 1013.6
20260502115042 1 336 3.2 11.3 0.00 0.05 0.00 86 1013.4
20260502114546 1 323 4.8 11.3 0.00 0.05 0.00 87 1013.4
20260502114104 1 300 6.4 9.7 0.00 0.05 0.00 88 1013.4
20260502113523 1 314 3.2 8.0 0.00 0.05 0.00 88 1013.4
20260502113046 0 315 4.8 8.0 0.00 0.05 0.00 89 1013.4
20260502112036 0 306 3.2 4.8 0.00 0.05 0.00 89 1013.3
20260502111548 0 200 1.6 3.2 0.00 0.05 0.00 89 1013.3
20260502111054 0 200 0.0 0.0 0.00 0.05 0.00 89 1013.3
20260502110043 0 200 0.0 0.0 0.00 0.05 0.00 89 1013.3
20260502105022 0 200 0.0 0.0 0.00 0.05 0.00 89 1013.3
20260502104539 0 200 0.0 0.0 0.00 0.05 0.00 89 1013.3
20260502103538 0 200 0.0 0.0 0.00 0.05 0.00 88 1013.3
20260502103025 0 200 0.0 0.0 0.00 0.05 0.00 88 1013.3
20260502102605 0 200 0.0 0.0 0.00 0.05 0.00 88 1013.3
20260502102054 0 200 0.0 0.0 0.00 0.05 0.00 89 1013.3
20260502101550 0 200 0.0 0.0 0.00 0.05 0.00 89 1013.3
20260502101046 0 200 0.0 0.0 0.00 0.05 0.00 89 1013.3
20260502091521 0 200 0.0 0.0 0.00 0.05 0.00 89 1013.3
20260502091056 0 200 0.0 0.0 0.00 0.05 0.00 89 1013.2
20260502090554 0 200 0.0 0.0 0.00 0.05 0.00 89 1013.2
20260502071022 1 200 0.0 0.0 0.00 0.05 0.00 88 1013.2
20260502070549 1 200 0.0 0.0 0.00 0.05 0.00 88 1013.2
20260502070047 1 200 0.0 0.0 0.00 0.05 0.00 88 1013.2
20260502065028 1 200 0.0 0.0 0.00 0.05 0.00 88 1013.2
20260502064600 1 200 0.0 0.0 0.00 0.05 0.00 88 1013.2
20260502064104 1 200 0.0 0.0 0.00 0.05 0.00 88 1013.3
20260502063609 2 200 0.0 0.0 0.00 0.05 0.00 88 1013.3